星链-5827 (STARLINK-5827 )

导读

STARLINK-5827是美国SpaceX公司星链(Starlink)星座的一颗互联网通信卫星,于北京时间2023年6月22日发射升空,属于星链巨型低轨卫星组网的组成部分。它运行在近地轨道,旨在为全球提供高速、低延迟的宽带互联网服务,完善星链星座的全球覆盖能力,推动太空互联网基础设施建设。

基本信息
目录编号:
57066
目录名称:
STARLINK-5827
国际标识:
2023-088U
轨道中心:
EARTH
卫星名称:
星链-5827
卫星全名:
星链-5827 (STARLINK-5827 )
卫星状态:
在轨 (已飞行1178 天)
发射日期:
2023-06-22 UTC
国别 :
美国 (US)
星等 :
--
该卫星已列入 空间交会检测服务 Space Conjunction Data Service (SCDS) ,当前飞行风险评估等级: 无高风险
轨道信息
数据来源 国际轨道数据
星历时间: 2026-09-12T09:02:20+0800
13小时前
查看轨道信息
半长轴: 6861.205km
偏心率: 0.0000926
轨道倾角: 43.003°
近地点辐角 200.149°
升交点赤经 138.158°
平近点角 159.933°
近地点: 482.432km
远地点: 483.704km
周期: 94.267分钟
每日圈数: 15.275737
详细信息
固有亮度:
5
最大亮度:
2.4
卫星平台:
Starlink v1.5
覆盖范围:
全球
运营商:
太空探索技术公司
运营商所在国:
美国
制造商(研发单位):
太空探索技术公司
制造商所在国:
美国
使用方式:
暂无
卫星简介
星链(Starlink)计划是由太空探索技术公司(SpaceX)提出的一个巨型低轨卫星互联网星座项目,计划在2019年至2024年间在太空搭建由约1.2万颗卫星组成的“星链”网络,其中1584颗将部署在地球上空550千米处的近地轨道,并从2020年开始工作。该卫星仍在工作。
2D轨道图
3D轨道图
轨道高度分析图
轨道倾角分析图
轨道综合分析图
查看轨道综合分析图
交会数据列表
事件ID 空间交会对象 最接近时刻(TCA) 交会距离 交会风险概率(CRP) 交会风险指数(CRI) 操作
CDM_260914-205705-706606-299821
2026-09-14T
20:57:46+0000
0.441 km
远距离
1.096629E-4 高风险 0.76
CDM_260907-205205-706605-966123
2026-09-07T
20:52:28+0000
0.674 km
远距离
5.320535E-5 中风险 0.7
CDM_260914-095505-233105-706621
2026-09-14T
09:55:41+0000
1.420 km
极远距离
3.604999E-6 低风险 0.46
CDM_260905-010305-706606-441621
2026-09-05T
01:03:20+0000
2.627 km
极远距离
1.467813E-6 低风险 0.38
CDM_260907-191805-706605-966122
2026-09-07T
19:18:19+0000
2.240 km
极远距离
1.289011E-6 低风险 0.37
CDM_260914-201005-706606-299821
2026-09-14T
20:10:42+0000
2.655 km
极远距离
6.478826E-7 极低风险 0.31
与全量物体交会距离演化趋势
与全量物体交会风险概率演化趋势